SPOT 2 
1 20436U 90005A   03071.15498670  .00000216  00000-0  12195-3 0  3871
2 20436  98.6943 146.7584 0001107  91.1468 301.5935 14.20049731680820
MOS 1B MOMO 
1 20478U 90013A   03069.64431972 -.00000042  00000-0  00000-0 0  8275
2 20478  98.8088 106.4537 0005723   5.7532 354.3694 13.94697156586980
OKEAN 2 
1 20510U 90018A   03069.97325530  .00002402  00000-0  25103-3 0  3174
2 20510  82.5160  90.2273 0016217 146.0169 214.2101 14.89203827703655
OKEAN 3 
1 21397U 91039A   03069.93938127  .00002783  00000-0  32322-3 0  9281
2 21397  82.5224  14.5976 0017477 268.2615  91.6598 14.84956034634673
ERS-1 
1 21574U 91050A   03069.92581046  .00000302  00000-0  11940-3 0  6919
2 21574  98.4398 143.3100 0035414  78.8028 281.7134 14.35280990609501
IRS-1B 
1 21688U 91061A   03070.16044602  .00000161  00000-0  14677-3 0  1544
2 21688  98.9709 140.8937 0019276 338.7638  54.6278 13.96811798481912
TOPEX 
1 22076U 92052A   03069.89823888 -.00000038  00000-0  10000-3 0  5742
2 22076  66.0437 147.8096 0007992 267.9992  92.0103 12.80929883494902
SPOT 3 
1 22823U 93061A   03070.15726466  .00000208  00000-0  12096-3 0  3000
2 22823  98.4401 103.4695 0017315 158.8817 201.3076 14.18312292489483
OKEAN 1-7 
1 23317U 94066A   03069.91882294  .00001988  00000-0  25287-3 0  2684
2 23317  82.5412 309.9876 0023169 348.8306  11.2390 14.80973175453110
IRS-P2 
1 23323U 94068A   03069.83327202  .00000186  00000-0  10173-3 0  5047
2 23323  98.4602 123.2109 0001007  96.8272 263.3028 14.22775057436089
RESURS O1-3 
1 23342U 94074A   03070.46589978  .00001713  00000-0  25927-3 0   254
2 23342  97.7548  68.9957 0001335  60.5828 299.5520 14.75407012448336
ERS-2 
1 23560U 95021A   03071.15161339 -.00000063  00000-0 -70620-5 0  2245
2 23560  98.5394 146.4860 0001053 109.1103 251.0213 14.32257553412557
SICH-1 
1 23657U 95046A   03069.93603528  .00001906  00000-0  24784-3 0   503
2 23657  82.5260  90.7423 0024238 330.2903  29.6933 14.80014307405247
RADARSAT 
1 23710U 95059A   03070.48447405  .00000287  00000-0  12815-3 0  2313
2 23710  98.5769  78.5962 0000938  77.3719 282.7572 14.29983807383570
IRS-1C 
1 23751U 95072A   03070.23992444  .00000108  00000-0  68800-4 0  2491
2 23751  98.5922 140.1545 0000559  82.1518 277.9722 14.21685872373686
IRS-P3 
1 23827U 96017A   03070.11542485  .00000270  00000-0  14209-3 0  2637
2 23827  98.4901 130.0437 0001013 298.2991  61.8088 14.21733475361725
TOMS-EP 
1 23940U 96037A   03069.98210574  .00001432  00000-0  37277-3 0  2652
2 23940  98.2701 334.1430 0028764 209.8836 150.0718 14.50826498357125
ADEOS 
1 24277U 96046A   03069.65410775  .00000201  00000-0  96825-4 0  4374
2 24277  98.3455 116.4292 0000864 146.8019 213.3216 14.28389187341906
ORBVIEW 2 SE
1 24883U 97037A   03070.85951910  .00000825  00000-0  18460-3 0   593
2 24883  98.2159 171.5873 0002482 114.3699 245.7758 14.59217672298452
IRS-1D 
1 24971U 97057A   03070.23973671  .00000189  00000-0  83988-4 0  2192
2 24971  98.5262 145.1321 0055865 253.7500 105.7503 14.32822200284891
TRMM 
1 25063U 97074A   03071.16968348  .00102329  00000-0  14174-2 0    86
2 25063  34.9741 358.5995 0000925 239.6478 119.9225 15.55783121303323
SPOT 4 
1 25260U 98017A   03070.21332496  .00000223  00000-0  12564-3 0  1507
2 25260  98.7453 145.7188 0001183  94.7032 265.4285 14.20015602257338
RESURS O1-N4
1 25394U 98043A   03070.22514169  .00000225  00000-0  11701-3 0  4679
2 25394  98.6289 147.7685 0002348  60.8611 299.2802 14.23885858242477
FASAT-B 
1 25395U 98043B   03070.18615172 -.00000043  00000-0  00000+0 0  8906
2 25395  98.6246 147.5355 0003656  73.0697 287.0884 14.23902827242499
TMSAT 
1 25396U 98043C   03071.18465492 -.00000043  00000-0  00000+0 0  8300
2 25396  98.6237 147.8673 0003790  92.0874 268.0740 14.23516356242604
TECHSAT 1B 
1 25397U 98043D   03069.94920192  .00000111  00000-0  68325-4 0  1638
2 25397  98.6179 145.5065 0002173  88.1178 272.0247 14.22964890242399
ROCSAT-1 
1 25616U 99002A   03069.46461062  .00005573  00000-0  51788-3 0   642
2 25616  34.9865   9.0662 0024756 338.6383  21.3288 14.93554460223673
SUNSAT 
1 25636U 99008C   03069.96545813  .00000581  00000-0  16083-3 0  7877
2 25636  96.4565  49.9382 0147445 271.1420  87.2887 14.42976725212750
LANDSAT 7 
1 25682U 99020A   03071.12906154  .00000581  00000-0  13901-3 0  9128
2 25682  98.2117 139.6070 0000176  68.6718 291.4499 14.57114042207735
UOSAT-12 
1 25693U 99021A   03071.15786953  .00000571  00000-0  10148-3 0  7786
2 25693  64.5592 304.7079 0022261 315.1308  44.7995 14.76415903209449
KITSAT-3 
1 25756U 99029A   03070.60009224 -.00000481  00000-0 -10771-3 0   981
2 25756  98.4267 185.4005 0013246 316.4868  43.5225 14.51914994200828
TUBSAT 
1 25757U 99029B   03071.16663155  .00000180  00000-0  57602-4 0  7338
2 25757  98.4210 184.1752 0013957 326.6733  33.3582 14.50555980200823
OCEANSAT 
1 25758U 99029C   03070.89767711  .00000848  00000-0  22615-3 0  1454
2 25758  98.2843 168.7408 0001684  58.9699 301.1660 14.50845404200916
QUIKSCAT 
1 25789U 99034A   03070.04660652  .00000128  00000-0  70964-4 0  7578
2 25789  98.6329 256.8340 0001336  88.4212 271.7117 14.26587732193909
OKEAN-O 
1 25860U 99039A   03069.95165126  .00001046  00000-0  17182-3 0   257
2 25860  97.8608 116.8270 0001687  41.5736 318.5600 14.72639149195930
IKONOS-2 
1 25919U 99051A   03070.12661177  .00000974  00000-0  19290-3 0  9186
2 25919  98.1198 148.0454 0000981  58.8111 301.3189 14.64455428184890
CBERS-1 
1 25940U 99057A   03070.24362980  .00000040  00000-0  28762-4 0  8604
2 25940  98.4174 142.0050 0001010  56.2302 303.8968 14.35501560178516
TERRA 
1 25994U 99068A   03071.14942713  .00000770  00000-0  18105-3 0  7746
2 25994  98.1940 147.0314 0001093  71.0725 289.0592 14.57095177171816
KOMPSAT 
1 26032U 99070A   03070.11743480  .00002025  00000-0  37251-3 0  9053
2 26032  98.0877 331.5627 0003942 218.2246 141.8679 14.66692617171962
TIUNGSAT 1 
1 26548U 00057D   03069.75433238  .00002063  00000-0  27752-3 0  4284
2 26548  64.5587 322.5465 0044092 234.8018 124.8967 14.81343865132369
EO-1 
1 26619U 00075A   03070.23706641  .00000170  00000-0  47836-4 0  6767
2 26619  98.2103 138.9785 0000264 111.5684 248.5521 14.57110265122248
SAC C 
1 26620U 00075B   03069.98152727  .00000930  00000-0  21632-3 0  8029
2 26620  98.1965 145.4399 0001803 148.9039 211.2269 14.57121777122243
EROS-A1 
1 26631U 00079A   03070.23536666  .00039753  00000-0  11095-2 0  6331
2 26631  97.3350 136.2065 0020885 251.0015 140.9933 15.36405920126224
QUICKBIRD 2 
1 26953U 01047A   03070.25410002  .00022990  00000-0  57842-3 0  6865
2 26953  97.1477 144.0168 0001244 183.3528 215.2917 15.39937666 78228
TES 
1 26957U 01049A   03070.12309874  .00003703  00000-0  29158-3 0  9190
2 26957  97.7009 149.8708 0024820 348.9229  11.1445 15.01185714 75712
JASON 
1 26997U 01055A   03069.89351434 -.00000061  00000-0  00000-0 0  1641
2 26997  66.0428 147.5297 0007604 269.8710  90.1434 12.80929367 58692
BADR B 
1 27003U 01056C   03069.96919441  .00000144  00000-0  21472-3 0  1399
2 27003  99.5856 309.2446 0019755 217.2890 142.6885 13.70035918 62346
MAROC-TUBSAT
1 27004U 01056D   03070.20507622  .00000144  00000-0  21472-3 0  1472
2 27004  99.5849 309.4274 0019490 216.9230 143.0575 13.69979823 62363
ENVISAT 
1 27386U 02009A   03069.94429843 -.00000523  00000-0 -17774-3 0  9720
2 27386  98.5527 138.2068 0001027  86.7916 273.3387 14.32238394 53661
SPOT 5 
1 27421U 02021A   03070.26678923  .00000175  00000-0  10274-3 0   591
2 27421  98.7201 146.4903 0000726 102.2589 257.8673 14.20040266 44173
AQUA 
1 27424U 02022A   03069.93004486  .00001470  00000-0  33591-3 0  3133
2 27424  98.2026  11.1877 0001483  46.8881 313.2441 14.57160168 45246
ALSAT 1 
1 27559U 02054A   03070.16639974  .00000565  00000-0  14431-3 0  3721
2 27559  98.2323 318.1604 0043516 118.8309 241.7258 14.53581754 14949
ADEOS II 
1 27597U 02056A   03070.26819639 -.00001491  00000-0 -60937-3 0   959
2 27597  98.7206 144.1592 0001961 106.8950 253.2438 14.25762975 12431
ICESAT 
1 27642U 03002A   03069.91100570 -.00000297  00000-0 -29195-4 0   640
2 27642  94.0012 209.9452 0002545  86.8104 273.3415 14.90451420  8477
SARSAT 4 NOA
1 19531U 88089A   03070.44891987  .00000244  00000-0  15039-3 0  5304
2 19531  98.8970 151.7585 0012161 140.4173 219.7890 14.14548396745754
COSPAS 4 NAD
1 20103U 89050A   03070.53500240  .00000088  00000-0  77112-4 0  6385
2 20103  82.9587  95.3644 0039209  45.7620 314.6741 13.74204077686264
GOES 8 
1 23051U 94022A   03069.82715425 -.00000247  00000-0  00000+0 0  6417
2 23051   0.3445 101.4410 0002175 294.8229 354.9646  1.00270625 40016
SARSAT 6 NOA
1 23455U 94089A   03070.50040999  .00000228  00000-0  14649-3 0  5518
2 23455  99.1870  89.6192 0009473 166.4046 193.7383 14.13305761422430
GOES 9 
1 23581U 95025A   03070.35775240  .00000071  00000-0  00000+0 0  5558
2 23581   0.2074 276.6756 0011930 247.0039 321.3806  1.00067617 28575
GOES 10 
1 24786U 97019A   03070.71437676  .00000093  00000-0  00000+0 0  5834
2 24786   0.2096 105.4825 0003386 283.6890 261.3985  1.00267959 21542
SARSAT 7 NOA
1 25338U 98030A   03070.53345041  .00000269  00000-0  13530-3 0   360
2 25338  98.5493  92.1149 0009610 256.5347 103.4762 14.24254822250784
COSPAS 9 NAD
1 26384U 00033A   03070.54738297  .00001311  00000-0  26461-3 0  7530
2 26384  98.2590  30.4543 0016260 159.1065 201.0805 14.63030725143992
SARSAT 8 NOA
1 26536U 00055A   03070.13284876  .00000424  00000-0  25650-3 0  2423
2 26536  98.9048  18.2677 0009805 247.0703 112.9458 14.11917131127052
